オルボルセン彗星

C/2013 U2 ( Holvorcem )

English version
Home page
Updated on May 22, 2017

---------------------------------------------------------------------

・ プロフィール

発見日 2013年10月23日
発見光度 18.7等
発見者 Paulo Holvorcem (Tenagra III astrograph)

・ 写真集

・ 軌道要素

Epoch 2014 Oct. 30.0 TT = JDT 2456960.5
T 2014 Oct. 25.86199 TT                                 MPCW
q   5.1167312            (2000.0)            P               Q
z  +0.0011174      Peri.  107.37413     -0.38133621     -0.92067748
 +/-0.0000005      Node     7.00169     +0.34188313     -0.22415649
e   0.9942824      Incl.   43.09398     +0.85889384     -0.31954163
From 451 observations 2013 Oct. 23-2017 Mar. 27, mean residual 0".4.

・ 光度変化

        m1 = 7.0 + 5 logΔ + 10.0 log r

---------------------------------------------------------------------

軌道要素はM.P.E.C. 2017-J52に掲載されたものです。
光度グラフはComet for Windowsで作成したものです。

---------------------------------------------------------------------

Copyright(C) Seiichi Yoshida (comet@aerith.net). All rights reserved.